Rbgn^[z[y[W
メイン
   新天体発見情報
     Comet C/2025 Q1 (ATLAS)
投稿するにはまず登録を

フラット表示 前のトピック | 次のトピック
投稿者 スレッド
佐藤裕久
投稿日時: 2025-9-3 23:20
モデレータ
登録日: 2005-6-12
居住地: 日本
投稿: 2676
オンライン
Comet C/2025 Q1 (ATLAS)

H. Weilandの通報によると、8月2日UT、チリ Rio Hurtadoにある小惑星地球衝突最終警報システム 
Asteroid Terrestrial-impact Last Alert System (ATLAS)調査プログラムのコースに0.5-m f/2 
Schmidt反射望遠鏡で得たCCD画像から、拡散した6".6のコマとp.a. 122°に44"のまっすぐな尾の
ある彗星を発見した。
小惑星センターのPCCP webpageに公表後、S. Deen (Simi Valley, カリフォルニア州, 米国)は、
8月27.4日と9月2.3日UT、Rio Hurtadoの0.43-m 反射望遠鏡で得たCMOS観測から、天体は明らかに
彗星状であったが、星と絡み合っていた。Deenはさらに、2020年から2023年にかけて、彗星に関す
るCerro Tololo-DECamアーカイブ画像を複数見つけた。2020年1月31日、1".2のシーイングで得た
画像では、彗星は完全に恒星状であった。2022年2月24日、1".4のシーイングの画像では、彗星は
1".7(半値全幅:FWHM)のコンパクトな形状で、尾は確認されなかった。2022年11月10日、この彗星は
星々との接近が顕著であった。 2023年4月29日、1".0のシーイングでは、1".4(FWHM)の非常にコン
パクトなコマが観測された。明るい尾はp.a. 45-90°におよそ3"伸び、北側へ湾曲して核集光から
p.a. 10-25°方向へ延びる全長12"ののずっと暗い尾へと続いている。
Deenはさらに、2015年3月16日、Maunakeaの8.2-m すばる望遠鏡で得たzバンド画像では彗星は確認
できず(限界光度23.5等)と補足した。
A. Hale (Cloudcroft, ニューメキシコ州)の報告によると、8月31.9 UTに南アフリカ Sutherland
の0.35-m f/3 Cassegrain 反射望遠鏡の遠隔操作で得たCCD画像で、かろうじて検出できたと報告
した。300-秒露出3枚から、光度19.5-19.9等の集光した7"の頭部が見え、非常にかすかな拡散した
コマらしく、尾はなかった。

彗星機能の報告は次のとおり、

OC   Date        Reporter            Coma    Tail   PA   Comet     Date
                                                        (T/P)   Reported
W84  2023-04-29  S. Deen             3".4     12"  16     T   2025-09-02.44
W68  2025-08-27  H. Weiland          6".5     44"  122    T   2025-08-27.80
L09  2025-08-31  A. Hale             7"                   P   2025-08-31.95

発見位置は次のとおり、(A11rDZC)

     2025 UT             R.A. (2000) Decl.       Mag.
     Aug. 27.23877   20 25 12.93   -79 05 41.2   19.8
          27.24730   20 25 11.87   -79 05 38.2   19.9
          27.25582   20 25 11.24   -79 05 37.2   19.9
          27.26433   20 25 10.92   -79 05 33.7   19.7

DeenがCerro Tololo-DECamアーカイブ画像から見つけた位置、

     2020 UT             R.A. (2000) Decl.       Mag.
     Jan. 31.35817   10 15 25.95   -32 30 18.9   24.1

     2022 UT             R.A. (2000) Decl.       Mag.
     Feb. 24.11947   10 18 27.97   -56 55 04.1   20.4
     Nov. 10.35532   11 05 52.58   -60 39 41.4   20.6

     2023 UT             R.A. (2000) Decl.       Mag.
     Apr. 29.07326    9 42 53.55   -70 29 38.0   19.3

MPCの楕円軌道要素、位置推算表は次のとおり、

Orbital elements:
    C/2025 Q1 (ATLAS)                                                       
Epoch 2025 May 5.0 TT = JDT 2460800.5                                           
T 2024 July 11.98717 TT                                 Veres                   
q  10.0999569            (2000.0)            P               Q                  
z  +0.0008386      Peri.  280.23455     -0.06797208     +0.86410374             
 +/-0.0000155      Node   326.95867     -0.03682383     -0.50169120             
e   0.9915299      Incl.   66.15493     -0.99700742     -0.04038159             
From 18 observations 2020 Jan. 31-2025 Sept. 2, mean residual 0".6.             
                                                                                
Ephemeris:
Date    TT    R. A. (2000) Decl.     Delta      r    Elong.  Phase   m1
2025 08 03    21 07 19.6 -80 18 34   9.8082 10.3123   117.2     5.0  18.9
...
2025 08 18    20 39 18.1 -79 41 37   9.8911 10.3289   113.0     5.2  18.9
...
2025 08 26    20 26 55.8 -79 11 01   9.9482 10.3379   110.0     5.3  18.9
...
2025 09 01    20 19 10.5 -78 43 49   9.9963 10.3448   107.5     5.3  18.9
2025 09 02    20 18 00.9 -78 38 58  10.0047 10.3460   107.1     5.3  18.9
2025 09 03    20 16 53.6 -78 34 03  10.0132 10.3471   106.6     5.4  19.0
...
2025 09 09    20 10 57.3 -78 02 52  10.0667 10.3542   103.9     5.4  19.0
...
2025 09 17    20 05 05.3 -77 17 37  10.1434 10.3637    99.9     5.5  19.0
...
2025 10 02    19 59 47.7 -75 44 46  10.3001 10.3820    91.9     5.5  19.0

(MPEC 2025-R19、CBET 5599)

フラット表示 前のトピック | 次のトピック

題名 投稿者 日時
 » Comet C/2025 Q1 (ATLAS) 佐藤裕久 2025-9-3 23:20

投稿するにはまず登録を
 
© 1999 Tsutomu Seki.